K4FB Weather Reports


Display with metric or nautical units.
time (UTC)temp
F
wind
direction
speed
MPH
gust
MPH
rain 1hr
in
rain 24hr
in
rain mn
in
humidity
%
barometer
mb
20260902005513 80 207 0.0 0.0 0.00 0.00 0.00 85 1017.1
20260902005016 80 207 0.0 0.0 0.00 0.00 0.00 84 1017.0
20260902004520 80 207 0.0 0.0 0.00 0.00 0.00 84 1017.0
20260902004011 81 207 0.0 0.0 0.00 0.00 0.00 84 1017.0
20260902003507 81 207 0.0 1.0 0.00 0.00 0.00 83 1016.9
20260902003028 81 206 0.0 1.0 0.00 0.00 0.00 83 1017.0
20260902002511 82 194 0.0 2.0 0.00 0.00 0.00 82 1016.9
20260902002013 82 188 0.0 4.0 0.00 0.00 0.00 82 1016.8
20260902001530 82 204 1.0 4.0 0.00 0.00 0.00 81 1016.8
20260902001011 82 189 0.0 1.0 0.00 0.00 0.00 80 1016.8
20260902000514 82 101 0.0 3.0 0.00 0.00 0.00 79 1016.7
20260902000042 83 29 0.0 4.0 0.00 0.00 0.00 79 1016.7
20260901235517 83 40 1.0 4.0 0.00 0.00 0.00 79 1016.7
20260901235010 83 17 0.0 4.0 0.00 0.00 0.00 79 1016.7
20260901234531 83 5 0.0 4.0 0.00 0.00 0.00 79 1016.7
20260901234018 83 17 0.0 1.0 0.00 0.00 0.00 79 1016.5
20260901233515 84 5 0.0 5.0 0.00 0.00 0.00 78 1016.6
20260901233026 84 19 1.0 5.0 0.00 0.00 0.00 77 1016.6
20260901232508 84 26 0.0 5.0 0.00 0.00 0.00 76 1016.5
20260901232012 84 44 1.0 5.0 0.00 0.00 0.00 75 1016.5
20260901231523 84 27 1.0 5.0 0.00 0.00 0.00 75 1016.3
20260901231011 84 40 1.0 6.0 0.00 0.00 0.00 74 1016.4
20260901230513 85 13 1.0 6.0 0.00 0.00 0.00 72 1016.4
20260901230033 85 13 1.0 6.0 0.00 0.00 0.00 72 1016.4
20260901225512 85 26 0.0 5.0 0.00 0.00 0.00 72 1016.4
20260901225013 85 19 2.0 8.0 0.00 0.00 0.00 71 1016.5
20260901224540 85 13 3.0 8.0 0.00 0.00 0.00 71 1016.5
20260901224010 85 23 1.0 6.0 0.00 0.00 0.00 72 1016.4
20260901223517 86 335 1.0 8.0 0.00 0.00 0.00 72 1016.4
20260901223045 86 16 2.0 8.0 0.00 0.00 0.00 72 1016.5
20260901222519 86 19 2.0 8.0 0.00 0.00 0.00 72 1016.5
20260901222011 87 9 0.0 6.0 0.00 0.00 0.00 72 1016.4
20260901221531 87 44 0.0 8.0 0.00 0.00 0.00 72 1016.3
20260901221011 87 87 1.0 11.0 0.00 0.00 0.00 71 1016.4
20260901220514 87 82 1.0 11.0 0.00 0.00 0.00 70 1016.4
20260901220006 87 71 4.0 9.0 0.00 0.00 0.00 70 1016.3
20260901215505 87 71 1.0 7.0 0.00 0.00 0.00 70 1016.2
20260901215002 87 17 0.0 11.0 0.00 0.00 0.00 70 1016.2
20260901214505 87 76 3.0 11.0 0.00 0.00 0.00 69 1016.1
20260901214004 88 360 2.0 11.0 0.00 0.00 0.00 69 1016.1
20260901213508 88 19 5.0 10.0 0.00 0.00 0.00 68 1016.0
20260901213012 89 43 1.0 10.0 0.00 0.00 0.00 66 1015.9
20260901212504 90 64 3.0 10.0 0.00 0.00 0.00 66 1016.1
20260901212004 90 32 3.0 10.0 0.00 0.00 0.00 65 1016.1
20260901211524 91 13 3.0 13.0 0.00 0.00 0.00 66 1016.0
20260901211010 91 78 3.0 16.0 0.00 0.00 0.00 67 1016.1
20260901210503 91 5 6.0 16.0 0.00 0.00 0.00 67 1016.1
20260901210024 91 49 5.0 13.0 0.00 0.00 0.00 67 1016.0
20260901205510 91 59 6.0 11.0 0.00 0.00 0.00 66 1016.0
20260901205006 91 344 4.0 13.0 0.00 0.00 0.00 67 1016.3
20260901204515 91 58 5.0 13.0 0.00 0.00 0.00 68 1016.1
20260901204003 90 130 2.0 13.0 0.00 0.00 0.00 71 1016.1
20260901203503 90 36 4.0 11.0 0.00 0.00 0.00 73 1015.9
20260901203006 89 32 5.0 10.0 0.00 0.00 0.00 74 1016.0
20260901202506 88 360 1.0 10.0 0.00 0.00 0.00 76 1016.0
20260901202006 87 30 1.0 10.0 0.00 0.00 0.00 75 1016.2
20260901201515 87 69 2.0 10.0 0.00 0.00 0.00 76 1016.2
20260901201003 86 57 1.0 10.0 0.00 0.00 0.00 76 1016.3
20260901200507 86 61 2.0 10.0 0.00 0.00 0.00 76 1016.3
20260901200039 87 15 0.0 8.0 0.00 0.00 0.00 76 1016.2
20260901195504 87 40 2.0 7.0 0.00 0.00 0.00 75 1016.3
20260901195003 87 34 1.0 6.0 0.00 0.00 0.00 74 1016.3
20260901194523 88 22 1.0 5.0 0.00 0.00 0.00 73 1016.3
20260901194008 88 347 3.0 9.0 0.00 0.00 0.00 72 1016.3
20260901193503 89 21 3.0 9.0 0.00 0.00 0.00 71 1016.3
20260901193008 88 342 4.0 9.0 0.00 0.00 0.00 74 1016.3
20260901192505 88 67 2.0 6.0 0.00 0.00 0.00 78 1016.4
20260901192005 87 339 1.0 6.0 0.00 0.00 0.00 77 1016.5
20260901191513 86 12 2.0 6.0 0.00 0.00 0.00 79 1016.5
20260901191010 85 5 1.0 4.0 0.00 0.00 0.00 80 1016.6
20260901190506 85 329 0.0 4.0 0.00 0.00 0.00 80 1016.6
20260901190010 84 313 0.0 5.0 0.00 0.00 0.00 80 1016.6
20260901185508 84 20 0.0 5.0 0.00 0.00 0.00 80 1016.8
20260901185011 84 347 1.0 8.0 0.00 0.00 0.00 80 1017.0
20260901184525 83 331 0.0 8.0 0.00 0.00 0.00 80 1017.1
20260901184004 83 13 4.0 8.0 0.00 0.00 0.00 79 1017.1
20260901183511 83 343 1.0 5.0 0.00 0.00 0.00 79 1017.2
20260901183022 83 360 0.0 6.0 0.00 0.00 0.00 79 1017.2
20260901182503 83 352 1.0 6.0 0.00 0.00 0.00 78 1017.3
20260901182008 83 334 1.0 8.0 0.00 0.00 0.00 78 1017.2
20260901181509 84 350 1.0 8.0 0.00 0.00 0.00 78 1017.3
20260901181004 84 23 0.0 6.0 0.00 0.00 0.00 79 1017.3
20260901180506 84 360 0.0 6.0 0.00 0.00 0.00 78 1017.4
20260901180026 84 313 1.0 8.0 0.00 0.00 0.00 77 1017.5
20260901175508 84 340 2.0 8.0 0.00 0.00 0.00 76 1017.6
20260901175004 85 304 1.0 9.0 0.00 0.00 0.00 75 1017.7
20260901174518 85 327 2.0 10.0 0.00 0.00 0.00 74 1017.7
20260901174011 85 340 2.0 11.0 0.00 0.00 0.00 75 1017.8
20260901173514 86 324 6.0 12.0 0.00 0.00 0.00 74 1017.9
20260901173016 88 13 4.0 13.0 0.00 0.00 0.00 74 1017.9
20260901172508 88 36 4.0 17.0 0.00 0.00 0.00 76 1018.0
20260901172015 87 348 8.0 17.0 0.00 0.00 0.00 73 1018.1
20260901171510 87 26 9.0 19.0 0.00 0.00 0.00 71 1018.0
20260901171009 88 347 10.0 19.0 0.00 0.00 0.00 74 1017.9
20260901170507 87 46 5.0 17.0 0.00 0.00 0.00 75 1017.9
20260901170024 88 340 10.0 17.0 0.00 0.00 0.00 72 1018.0
20260901165504 89 51 5.0 17.0 0.00 0.00 0.00 72 1017.9
20260901165010 90 5 1.0 6.0 0.00 0.00 0.00 71 1018.0
20260901164516 90 318 0.0 4.0 0.00 0.00 0.00 71 1018.0
20260901164008 90 360 0.0 4.0 0.00 0.00 0.00 74 1017.9
20260901163510 89 86 0.0 3.0 0.00 0.00 0.00 75 1018.0
20260901163027 89 105 0.0 3.0 0.00 0.00 0.00 72 1018.0
20260901162512 89 327 0.0 1.0 0.00 0.00 0.00 72 1018.0
20260901162004 89 42 0.0 4.0 0.00 0.00 0.00 72 1018.0
20260901161524 89 11 0.0 4.0 0.00 0.00 0.00 73 1018.0
20260901161015 89 5 0.0 4.0 0.00 0.00 0.00 73 1017.9
20260901160513 89 73 0.0 1.0 0.00 0.00 0.00 75 1018.0
20260901160030 88 76 0.0 1.0 0.00 0.00 0.00 73 1018.0
20260901155513 88 352 0.0 1.0 0.00 0.00 0.00 74 1018.2
20260901155005 88 319 0.0 4.0 0.00 0.00 0.00 74 1018.2
20260901154516 88 11 0.0 5.0 0.00 0.00 0.00 74 1018.3
20260901154008 89 50 0.0 5.0 0.00 0.00 0.00 74 1018.2
20260901153508 89 44 0.0 4.0 0.00 0.00 0.00 75 1018.3
20260901153024 89 67 1.0 4.0 0.00 0.00 0.00 75 1018.4
20260901152508 90 331 0.0 2.0 0.00 0.00 0.00 76 1018.3
20260901152015 89 61 0.0 2.0 0.00 0.00 0.00 77 1018.4
20260901151529 89 340 0.0 2.0 0.00 0.00 0.00 77 1018.4
20260901151007 89 79 0.0 1.0 0.00 0.00 0.00 78 1018.4
20260901150512 88 50 0.0 1.0 0.00 0.00 0.00 80 1018.3
20260901150030 88 32 0.0 1.0 0.00 0.00 0.00 79 1018.3
20260901145512 88 51 0.0 1.0 0.00 0.00 0.00 80 1018.4
20260901145008 87 40 0.0 1.0 0.00 0.00 0.00 79 1018.4
20260901144527 87 334 0.0 1.0 0.00 0.00 0.00 82 1018.3
20260901144007 86 68 0.0 3.0 0.00 0.00 0.00 82 1018.3
20260901143508 86 9 0.0 3.0 0.00 0.00 0.00 84 1018.4
20260901143020 85 28 0.0 2.0 0.00 0.00 0.00 85 1018.3
20260901142508 85 50 0.0 2.0 0.00 0.00 0.00 84 1018.2
20260901142009 84 26 0.0 1.0 0.00 0.00 0.00 86 1018.1
20260901141534 84 13 0.0 1.0 0.00 0.00 0.00 87 1018.2
20260901141014 84 360 0.0 1.0 0.00 0.00 0.00 87 1018.2
20260901140512 83 9 0.0 1.0 0.00 0.00 0.00 88 1018.1
20260901140031 83 360 0.0 1.0 0.00 0.00 0.00 90 1018.1
20260901135512 82 40 0.0 2.0 0.00 0.00 0.00 91 1018.1
20260901135019 82 27 0.0 2.0 0.00 0.00 0.00 91 1018.2
20260901134531 81 108 0.0 1.0 0.00 0.00 0.00 92 1018.1
20260901134008 81 333 0.0 3.0 0.00 0.00 0.00 92 1018.0
20260901133513 80 352 0.0 3.0 0.00 0.00 0.00 93 1018.0
20260901133038 80 11 0.0 1.0 0.00 0.00 0.00 93 1018.0
20260901132511 80 360 0.0 1.0 0.00 0.00 0.00 93 1018.1
20260901132011 80 53 0.0 3.0 0.00 0.00 0.00 93 1018.0
20260901131531 80 81 0.0 3.0 0.00 0.00 0.00 93 1018.0
20260901131011 79 38 0.0 1.0 0.00 0.00 0.00 94 1017.9
20260901130504 79 64 0.0 1.0 0.00 0.00 0.00 94 1017.9
20260901130006 79 9 0.0 1.0 0.00 0.00 0.00 95 1017.8
20260901125503 79 34 0.0 1.0 0.00 0.00 0.00 95 1017.9
20260901125005 78 41 0.0 1.0 0.00 0.00 0.00 95 1017.8
20260901124509 78 27 0.0 2.0 0.00 0.00 0.00 95 1017.8
20260901124002 78 44 0.0 2.0 0.00 0.00 0.00 95 1017.7
20260901123507 78 52 0.0 1.0 0.00 0.00 0.00 1017.6
20260901123014 78 333 0.0 0.0 0.00 0.00 0.00 95 1017.5
20260901122504 77 332 0.0 0.0 0.00 0.00 0.00 95 1017.6
20260901122003 77 332 0.0 0.0 0.00 0.00 0.00 95 1017.5
20260901121520 77 332 0.0 0.0 0.00 0.00 0.00 95 1017.5
20260901121011 77 332 0.0 0.0 0.00 0.00 0.00 95 1017.5
20260901120504 77 332 0.0 0.0 0.00 0.00 0.00 95 1017.5
20260901120005 77 332 0.0 0.0 0.00 0.00 0.00 95 1017.4
20260901115503 77 332 0.0 0.0 0.00 0.00 0.00 95 1017.4
20260901115003 77 329 0.0 0.0 0.00 0.00 0.00 95 1017.3
20260901114506 77 329 0.0 0.0 0.00 0.00 0.00 95 1017.3
20260901114004 77 329 0.0 0.0 0.00 0.00 0.00 95 1017.3
20260901113504 77 329 0.0 0.0 0.00 0.00 0.00 95 1017.2
20260901113006 77 331 0.0 0.0 0.00 0.00 0.00 95 1017.2
20260901112503 76 337 0.0 0.0 0.00 0.00 0.00 94 1017.2
20260901112011 76 337 0.0 1.0 0.00 0.00 0.00 94 1017.2
20260901111518 76 337 0.0 1.0 0.00 0.00 0.00 94 1017.1
20260901111004 76 328 0.0 0.0 0.00 0.00 0.00 95 1017.2
20260901110506 76 337 0.0 1.0 0.00 0.00 0.00 95 1017.1
20260901110026 76 336 0.0 1.0 0.00 0.00 0.00 95 1017.1
20260901105503 76 331 0.0 0.0 0.00 0.00 0.00 94 1017.1
20260901105006 76 332 0.0 0.0 0.00 0.00 0.00 94 1017.0
20260901104506 76 331 0.0 0.0 0.00 0.00 0.00 94 1016.9
20260901104004 76 331 0.0 0.0 0.00 0.00 0.00 94 1016.9
20260901103504 76 331 0.0 0.0 0.00 0.00 0.00 94 1016.9
20260901103011 76 333 0.0 0.0 0.00 0.00 0.00 94 1017.0
20260901102505 75 333 0.0 0.0 0.00 0.00 0.00 94 1016.8
20260901102003 75 334 0.0 0.0 0.00 0.00 0.00 94 1016.8
20260901101514 75 341 0.0 0.0 0.00 0.00 0.00 94 1016.7
20260901101008 75 350 0.0 0.0 0.00 0.00 0.00 94 1016.7
20260901100508 75 350 0.0 0.0 0.00 0.00 0.00 94 1016.6
20260901100011 75 360 0.0 0.0 0.00 0.00 0.00 94 1016.5
20260901095507 75 360 0.0 0.0 0.00 0.00 0.00 93 1016.6
20260901095012 75 360 0.0 0.0 0.00 0.00 0.00 94 1016.5
20260901094506 75 360 0.0 0.0 0.00 0.00 0.00 94 1016.4
20260901094004 75 360 0.0 0.0 0.00 0.00 0.00 94 1016.4
20260901093504 75 360 0.0 0.0 0.00 0.00 0.00 93 1016.4
20260901093008 75 360 0.0 0.0 0.00 0.00 0.00 93 1016.4
20260901092504 75 360 0.0 0.0 0.00 0.00 0.00 93 1016.4
20260901092007 75 360 0.0 0.0 0.00 0.00 0.00 93 1016.4
20260901091514 75 360 0.0 0.0 0.00 0.00 0.00 93 1016.3
20260901091005 75 360 0.0 0.0 0.00 0.00 0.00 93 1016.2
20260901090505 75 360 0.0 0.0 0.00 0.00 0.00 93 1016.2
20260901090028 75 360 0.0 0.0 0.00 0.00 0.00 93 1016.3
20260901085507 75 360 0.0 0.0 0.00 0.00 0.00 93 1016.3
20260901085004 76 360 0.0 0.0 0.00 0.00 0.00 93 1016.3
20260901084516 76 360 0.0 0.0 0.00 0.00 0.00 93 1016.3
20260901084011 76 352 0.0 0.0 0.00 0.00 0.00 93 1016.2
20260901083517 76 352 0.0 0.0 0.00 0.00 0.00 93 1016.2
20260901083028 76 352 0.0 0.0 0.00 0.00 0.00 93 1016.3
20260901082510 76 352 0.0 0.0 0.00 0.00 0.00 93 1016.2
20260901082003 76 352 0.0 0.0 0.00 0.00 0.00 93 1016.1
20260901081515 76 352 0.0 0.0 0.00 0.00 0.00 93 1016.1
20260901081006 76 352 0.0 0.0 0.00 0.00 0.00 93 1016.1
20260901080507 76 352 0.0 0.0 0.00 0.00 0.00 93 1016.2
20260901080017 75 352 0.0 0.0 0.00 0.00 0.00 93 1016.4
20260901075506 76 352 0.0 0.0 0.00 0.00 0.00 93 1016.4
20260901075011 76 352 0.0 0.0 0.00 0.00 0.00 92 1016.3
20260901074530 76 352 0.0 0.0 0.00 0.00 0.00 93 1016.3
20260901074004 76 352 0.0 0.0 0.00 0.00 0.00 93 1016.3
20260901073507 76 352 0.0 0.0 0.00 0.00 0.00 93 1016.4
20260901073036 76 352 0.0 0.0 0.00 0.00 0.00 93 1016.4
20260901072516 76 352 0.0 0.0 0.00 0.00 0.00 92 1016.4
20260901072003 76 352 0.0 0.0 0.00 0.00 0.00 93 1016.4
20260901071524 76 352 0.0 0.0 0.00 0.00 0.00 93 1016.5
20260901071005 76 352 0.0 0.0 0.00 0.00 0.00 92 1016.5
20260901070504 76 352 0.0 0.0 0.00 0.00 0.00 92 1016.6
20260901070022 76 352 0.0 0.0 0.00 0.00 0.00 92 1016.7
20260901065506 76 352 0.0 0.0 0.00 0.00 0.00 92 1016.7
20260901065006 76 352 0.0 0.0 0.00 0.00 0.00 92 1016.7
20260901064527 76 352 0.0 0.0 0.00 0.00 0.00 92 1016.8
20260901064010 76 351 0.0 0.0 0.00 0.00 0.00 92 1017.0
20260901063509 76 352 0.0 1.0 0.00 0.00 0.00 92 1017.0
20260901063027 76 360 0.0 1.0 0.00 0.00 0.00 92 1017.1
20260901062504 76 12 0.0 1.0 0.00 0.00 0.00 92 1017.2
20260901062012 76 15 0.0 1.0 0.00 0.00 0.00 92 1017.2
20260901061533 76 360 0.0 1.0 0.00 0.00 0.00 92 1017.3
20260901061007 77 351 0.0 1.0 0.00 0.00 0.00 92 1017.4
20260901060509 77 352 0.0 1.0 0.00 0.00 0.00 92 1017.7
20260901060032 77 360 0.0 1.0 0.00 0.00 0.00 92 1017.7
20260901055504 77 21 0.0 1.0 0.00 0.00 0.00 92 1017.7
20260901055007 77 35 0.0 0.0 0.00 0.00 0.00 92 1017.7
20260901054519 77 352 0.0 0.0 0.00 0.00 0.00 92 1017.8
20260901054006 77 352 0.0 0.0 0.00 0.00 0.00 92 1017.8
20260901053505 77 360 0.0 0.0 0.00 0.00 0.00 92 1017.9
20260901053023 77 352 0.0 0.0 0.00 0.00 0.00 92 1017.9
20260901052509 77 352 0.0 1.0 0.00 0.00 0.00 91 1018.0
20260901052009 77 360 0.0 1.0 0.00 0.00 0.00 91 1018.1
20260901051520 77 352 0.0 1.0 0.00 0.00 0.00 91 1018.2
20260901051012 77 352 0.0 0.0 0.00 0.00 0.00 91 1018.2
20260901050513 77 351 0.0 0.0 0.00 0.00 0.00 91 1018.2
20260901050033 77 352 0.0 1.0 0.00 0.00 0.00 91 1018.3
20260901045509 78 360 0.0 1.0 0.00 0.00 0.00 91 1018.3
20260901045014 78 352 0.0 1.0 0.00 0.00 0.00 91 1018.3
20260901044533 78 15 0.0 0.0 0.00 0.00 0.00 91 1018.3
20260901044009 78 15 0.0 1.0 0.00 0.00 0.00 91 1018.3
20260901043506 78 317 0.0 1.0 0.00 0.00 0.00 1018.3
20260901043026 78 308 0.0 1.0 0.00 0.00 0.00 91 1018.4
20260901042509 78 306 0.0 0.0 0.00 0.00 0.00 91 1018.4
20260901042007 78 306 0.0 0.0 0.00 0.00 0.00 91 1018.3
20260901041530 78 306 0.0 0.0 0.00 0.00 0.00 91 1018.5
20260901041011 78 306 0.0 0.0 0.00 0.00 0.00 91 1018.6
20260901040507 78 295 0.0 0.0 0.00 0.00 0.00 91 1018.5
20260901040033 78 295 0.0 0.0 0.00 0.00 0.00 90 1018.6
20260901035512 78 295 0.0 0.0 0.00 0.00 0.00 90 1018.5
20260901035016 78 295 0.0 0.0 0.00 0.00 0.00 90 1018.5
20260901034532 78 295 0.0 0.0 0.00 0.00 0.00 90 1018.4
20260901034011 78 295 0.0 0.0 0.00 0.00 0.00 90 1018.5
20260901033513 78 295 0.0 0.0 0.00 0.00 0.00 90 1018.5
20260901033020 78 295 0.0 0.0 0.00 0.00 0.00 90 1018.6
20260901032511 78 295 0.0 0.0 0.00 0.00 0.00 90 1018.6
20260901032009 78 295 0.0 0.0 0.00 0.00 0.00 1018.7
20260901031543 78 295 0.0 0.0 0.00 0.00 0.00 1018.7
20260901031008 78 295 0.0 0.0 0.00 0.00 0.00 1018.7
20260901030514 78 295 0.0 0.0 0.00 0.00 0.00 89 1018.6
20260901030030 78 295 0.0 0.0 0.00 0.00 0.00 89 1018.7
20260901025514 78 295 0.0 0.0 0.00 0.00 0.00 89 1018.7
20260901025012 78 294 0.0 0.0 0.00 0.00 0.00 89 1018.7
20260901024533 78 294 0.0 0.0 0.00 0.00 0.00 89 1018.6
20260901024016 78 294 0.0 0.0 0.00 0.00 0.00 89 1018.6
20260901023508 78 294 0.0 0.0 0.00 0.00 0.00 88 1018.5
20260901023030 78 294 0.0 0.0 0.00 0.00 0.00 88 1018.5
20260901022520 78 294 0.0 0.0 0.00 0.00 0.00 89 1018.3
20260901022020 78 309 0.0 0.0 0.00 0.00 0.00 88 1018.3
20260901021524 78 302 0.0 0.0 0.00 0.00 0.00 88 1018.2
20260901021012 78 304 0.0 0.0 0.00 0.00 0.00 88 1018.1
20260901020509 79 304 0.0 0.0 0.00 0.00 0.00 88 1018.1
20260901020029 79 304 0.0 0.0 0.00 0.00 0.00 88 1018.1
20260901015514 79 304 0.0 0.0 0.00 0.00 0.00 88 1018.1
20260901015016 79 304 0.0 0.0 0.00 0.00 0.00 88 1018.0
20260901014531 79 13 0.0 0.0 0.00 0.00 0.00 87 1018.0
20260901014009 79 13 0.0 0.0 0.00 0.00 0.00 87 1017.9
20260901013519 79 13 0.0 0.0 0.00 0.00 0.00 87 1017.9
20260901013033 79 13 0.0 0.0 0.00 0.00 0.00 87 1017.8
20260901012509 79 13 0.0 1.0 0.00 0.00 0.00 87 1017.8
20260901012018 79 13 0.0 1.0 0.00 0.00 0.00 87 1017.6
20260901011532 79 55 0.0 0.0 0.00 0.00 0.00 87 1017.6
20260901011018 79 72 0.0 0.0 0.00 0.00 0.00 87 1017.6
20260901010508 79 72 0.0 0.0 0.00 0.00 0.00 87 1017.5
20260901010035 79 74 0.0 0.0 0.00 0.00 0.00 86 1017.4